Tiempo cada hora Alida

Hoy, 28 Julio, Miércoles

Tiempo Temperatura Precipitaciones Viento Presión Humedad
00:00 +26°C° 0 mm 2 mps 708 mmHg 35%
01:00 +26°C° 0 mm 3 mps 708 mmHg 37%
02:00 +25°C° 0 mm 4 mps 708 mmHg 38%
03:00 +23°C° 0 mm 5 mps 709 mmHg 43%
04:00 +23°C° 0 mm 6 mps 710 mmHg 48%
05:00 +22°C° 0 mm 7 mps 710 mmHg 52%
06:00 +23°C° 0 mm 7 mps 711 mmHg 49%
07:00 +24°C° 0 mm 7 mps 712 mmHg 46%
08:00 +26°C° 0 mm 7 mps 713 mmHg 43%
09:00 +28°C° 0 mm 6 mps 713 mmHg 36%
10:00 +30°C° 0 mm 6 mps 714 mmHg 29%
11:00 +33°C° 0 mm 5 mps 714 mmHg 22%
12:00 +33°C° 0 mm 5 mps 714 mmHg 20%
13:00 +34°C° 0 mm 5 mps 714 mmHg 19%
14:00 +35°C° 0 mm 5 mps 714 mmHg 18%
15:00 +34°C° 0 mm 5 mps 714 mmHg 19%
16:00 +33°C° 0 mm 5 mps 714 mmHg 20%
17:00 +33°C° 0 mm 5 mps 714 mmHg 22%
18:00 +30°C° 0 mm 5 mps 714 mmHg 25%
19:00 +27°C° 0 mm 4 mps 715 mmHg 28%
20:00 +25°C° 0 mm 3 mps 715 mmHg 32%
21:00 +22°C° 0 mm 3 mps 715 mmHg 39%
22:00 +21°C° 0 mm 3 mps 715 mmHg 47%
23:00 +19°C° 0 mm 3 mps 716 mmHg 54%

Mañana, 29 Julio, Jueves

Tiempo Temperatura Precipitaciones Viento Presión Humedad
00:00 +18°C° 0 mm 3 mps 716 mmHg 56%
01:00 +17°C° 0 mm 3 mps 716 mmHg 59%
02:00 +16°C° 0 mm 3 mps 716 mmHg 61%
03:00 +16°C° 0 mm 3 mps 716 mmHg 62%
04:00 +14°C° 0 mm 3 mps 716 mmHg 63%
05:00 +14°C° 0 mm 3 mps 717 mmHg 64%
06:00 +18°C° 0 mm 3 mps 717 mmHg 57%
07:00 +20°C° 0 mm 3 mps 717 mmHg 49%
08:00 +24°C° 0 mm 3 mps 718 mmHg 42%
09:00 +26°C° 0 mm 3 mps 718 mmHg 38%
10:00 +28°C° 0 mm 3 mps 718 mmHg 33%
11:00 +29°C° 0 mm 3 mps 718 mmHg 29%
12:00 +30°C° 0 mm 3 mps 717 mmHg 27%
13:00 +31°C° 0 mm 3 mps 717 mmHg 25%
14:00 +33°C° 0 mm 3 mps 716 mmHg 23%
15:00 +33°C° 0 mm 4 mps 716 mmHg 24%
16:00 +33°C° 0 mm 5 mps 715 mmHg 25%
17:00 +33°C° 0 mm 6 mps 715 mmHg 26%
18:00 +29°C° 0 mm 5 mps 715 mmHg 32%
19:00 +27°C° 0 mm 4 mps 714 mmHg 39%
20:00 +24°C° 0 mm 3 mps 714 mmHg 45%
21:00 +22°C° 0 mm 3 mps 714 mmHg 46%
22:00 +22°C° 0 mm 3 mps 714 mmHg 48%
23:00 +21°C° 0 mm 3 mps 714 mmHg 49%

Pasado mañana, 30 Julio, Viernes

Tiempo Temperatura Precipitaciones Viento Presión Humedad
00:00 +20°C° 0 mm 2 mps 714 mmHg 52%
01:00 +21°C° 0 mm 1 mps 714 mmHg 55%
02:00 +18°C° 0 mm 0 mps 714 mmHg 59%
03:00 +20°C° 0.4 mm 1 mps 714 mmHg 64%
04:00 +20°C° 0.4 mm 1 mps 714 mmHg 69%
05:00 +19°C° 0.4 mm 1 mps 714 mmHg 74%
06:00 +21°C° 0 mm 2 mps 714 mmHg 66%
07:00 +24°C° 0 mm 2 mps 714 mmHg 58%
08:00 +27°C° 0 mm 3 mps 714 mmHg 50%
09:00 +29°C° 0 mm 2 mps 714 mmHg 43%
10:00 +31°C° 0 mm 2 mps 714 mmHg 36%
11:00 +33°C° 0 mm 1 mps 714 mmHg 29%
12:00 +35°C° 0 mm 2 mps 714 mmHg 27%
13:00 +36°C° 0 mm 2 mps 714 mmHg 25%
14:00 +37°C° 0 mm 2 mps 713 mmHg 24%
15:00 +36°C° 0 mm 4 mps 713 mmHg 24%
16:00 +36°C° 0 mm 5 mps 713 mmHg 24%
17:00 +35°C° 0 mm 7 mps 713 mmHg 25%
18:00 +33°C° 0 mm 5 mps 713 mmHg 28%
19:00 +29°C° 0 mm 4 mps 713 mmHg 32%
20:00 +26°C° 0 mm 3 mps 713 mmHg 36%
21:00 +25°C° 0 mm 3 mps 714 mmHg 42%
22:00 +22°C° 0 mm 4 mps 714 mmHg 48%
23:00 +21°C° 0 mm 4 mps 714 mmHg 55%

31 Julio, Sábado

Tiempo Temperatura Precipitaciones Viento Presión Humedad
00:00 +20°C° 0 mm 4 mps 715 mmHg 56%
01:00 +19°C° 0 mm 3 mps 715 mmHg 57%
02:00 +17°C° 0 mm 3 mps 715 mmHg 59%
03:00 +17°C° 0 mm 3 mps 715 mmHg 60%
04:00 +16°C° 0 mm 3 mps 716 mmHg 62%
05:00 +16°C° 0 mm 3 mps 716 mmHg 63%
06:00 +18°C° 0 mm 4 mps 717 mmHg 55%
07:00 +21°C° 0 mm 4 mps 717 mmHg 47%
08:00 +25°C° 0 mm 4 mps 718 mmHg 39%
09:00 +26°C° 0 mm 4 mps 718 mmHg 36%
10:00 +28°C° 0 mm 4 mps 718 mmHg 32%
11:00 +29°C° 0 mm 4 mps 718 mmHg 28%
12:00 +30°C° 0 mm 4 mps 718 mmHg 26%
13:00 +30°C° 0 mm 5 mps 718 mmHg 24%
14:00 +32°C° 0 mm 5 mps 717 mmHg 22%
15:00 +32°C° 0 mm 5 mps 717 mmHg 23%
16:00 +30°C° 0 mm 5 mps 717 mmHg 23%
17:00 +30°C° 0 mm 5 mps 717 mmHg 23%
18:00 +27°C° 0 mm 4 mps 717 mmHg 28%
19:00 +25°C° 0 mm 4 mps 717 mmHg 33%
20:00 +21°C° 0 mm 3 mps 717 mmHg 38%
21:00 +19°C° 0 mm 3 mps 717 mmHg 41%
22:00 +18°C° 0 mm 3 mps 718 mmHg 44%
23:00 +16°C° 0 mm 3 mps 718 mmHg 47%

1 Agosto, Domingo

Tiempo Temperatura Precipitaciones Viento Presión Humedad
00:00 +14°C° 0 mm 3 mps 718 mmHg 49%
01:00 +15°C° 0 mm 2 mps 718 mmHg 51%
02:00 +14°C° 0 mm 2 mps 718 mmHg 53%
03:00 +14°C° 0 mm 1 mps 718 mmHg 53%
04:00 +14°C° 0 mm 1 mps 719 mmHg 53%
05:00 +13°C° 0 mm 0 mps 719 mmHg 53%
06:00 +18°C° 0 mm 1 mps 719 mmHg 47%
07:00 +21°C° 0 mm 1 mps 719 mmHg 40%
08:00 +23°C° 0 mm 1 mps 719 mmHg 33%
09:00 +25°C° 0 mm 1 mps 719 mmHg 31%
10:00 +27°C° 0 mm 1 mps 719 mmHg 29%
11:00 +28°C° 0 mm 2 mps 719 mmHg 26%
12:00 +29°C° 0 mm 2 mps 718 mmHg 25%
13:00 +30°C° 0 mm 1 mps 718 mmHg 24%
14:00 +31°C° 0 mm 1 mps 717 mmHg 23%
15:00 +31°C° 0 mm 1 mps 717 mmHg 23%
16:00 +31°C° 0 mm 1 mps 717 mmHg 22%
17:00 +31°C° 0 mm 1 mps 716 mmHg 22%
18:00 +28°C° 0 mm 1 mps 716 mmHg 27%
19:00 +26°C° 0 mm 1 mps 715 mmHg 32%
20:00 +23°C° 0 mm 2 mps 715 mmHg 37%
21:00 +21°C° 0 mm 2 mps 715 mmHg 39%
22:00 +20°C° 0 mm 2 mps 715 mmHg 41%
23:00 +19°C° 0 mm 2 mps 715 mmHg 43%

2 Agosto, Lunes

Tiempo Temperatura Precipitaciones Viento Presión Humedad
00:00 +18°C° 0 mm 2 mps 715 mmHg 46%
01:00 +17°C° 0 mm 2 mps 715 mmHg 50%
02:00 +16°C° 0 mm 2 mps 715 mmHg 54%
03:00 +15°C° 0 mm 2 mps 715 mmHg 55%
04:00 +15°C° 0 mm 2 mps 715 mmHg 57%
05:00 +15°C° 0 mm 2 mps 715 mmHg 58%
06:00 +19°C° 0 mm 1 mps 715 mmHg 50%
07:00 +22°C° 0 mm 1 mps 715 mmHg 42%
08:00 +25°C° 0 mm 1 mps 715 mmHg 34%
09:00 +27°C° 0 mm 1 mps 715 mmHg 30%
10:00 +30°C° 0 mm 1 mps 715 mmHg 26%
11:00 +32°C° 0 mm 1 mps 715 mmHg 22%
12:00 +34°C° 0 mm 2 mps 714 mmHg 20%
13:00 +34°C° 0 mm 2 mps 714 mmHg 18%
14:00 +35°C° 0 mm 3 mps 713 mmHg 17%
15:00 +35°C° 0 mm 3 mps 713 mmHg 17%
16:00 +35°C° 0 mm 3 mps 712 mmHg 17%
17:00 +35°C° 0 mm 3 mps 712 mmHg 17%
18:00 +31°C° 0 mm 3 mps 712 mmHg 21%
19:00 +28°C° 0 mm 3 mps 712 mmHg 25%
20:00 +26°C° 0 mm 2 mps 711 mmHg 29%
21:00 +25°C° 0 mm 2 mps 711 mmHg 29%
22:00 +24°C° 0 mm 2 mps 711 mmHg 30%
23:00 +24°C° 0 mm 2 mps 711 mmHg 31%
Mostrar más

Necesitamos Su Consentimiento

Meteoprog y nuestros Proveedores de Servicios pueden almacenar y acceder a sus datos personales como cookies, identificadores de dispositivo u otras tecnologías similares de su dispositivo y procesar dichos datos para personalizar contenido y anuncios, además de ofrecer funciones de redes sociales y analizar el tráfico.

  • Almacenar y/o acceder a información en su dispositivo

    Se puede almacenar o acceder a cookies, identificadores de dispositivo u otra información de su dispositivo para los fines anteriormente indicados.

  • Anuncios y contenido personalizados, medición de anuncios y contenido, percepciones del público, y desarrollo de productos

    Los anuncios y el contenido pueden personalizarse en base a su perfil. Se pueden añadir más datos para personalizar mejor los anuncios y contenidos. Se puede medir el rendimiento de los anuncios y contenidos. Se puede obtener la percepción sobre el público que ha visto los anuncios y contenidos. Dichos datos pueden usarse para desarrollar o mejorar la experiencia del usuario, sistemas y software.

Al hacer clic en ‘Estoy De Acuerdo’ usted permitirá el uso de las cookies, identificadores de dispositivo, balizas web u otras tecnologías similares indicadas. Su configuración puede cambiarse desde el navegador de su dispositivo.

Para ciertos fines, los intereses legítimos pueden ser considerados por encima del consentimiento. Puede leer más sobre ello en nuestra Política de Privacidad y Cookies.